Location: Callanans Corners
(42.5326°N, 73.8846°W)
Time: 13:48:59
(UTC+00:00)

Meteor 1-15 Rocket - Visible Passes

Search period start: 21 March 2023 00:00
Search period end: 31 March 2023 00:00
Orbit: 840 x 906 km, 81.2° (Epoch: 20 March)

Date Brightness Start Highest point End Pass type
(mag) Time Alt. Az. Time Alt. Az. Time Alt. Az.
21 Mar 5.6 01:50:27 27° NNE 01:50:27 27° NNE 01:53:08 10° NNE visible
21 Mar 6.5 03:32:52 20° NW 03:32:52 20° NW 03:35:42 10° NNW visible
22 Mar 5.2 01:44:25 35° NE 01:44:25 35° NE 01:47:54 10° NNE visible
22 Mar 6.5 03:26:51 20° NW 03:26:51 20° NW 03:30:21 10° NNW visible
23 Mar 4.7 01:38:16 48° NE 01:38:16 48° NE 01:42:40 10° NNE visible
23 Mar 6.4 03:20:40 20° WNW 03:20:48 20° WNW 03:25:01 10° NNW visible
24 Mar 4.2 01:31:54 63° E 01:31:54 63° E 01:37:25 10° NNE visible
24 Mar 6.5 03:14:18 18° W 03:15:34 19° WNW 03:19:41 10° NNW visible
25 Mar 4.2 01:25:16 55° SSE 01:26:21 67° E 01:32:11 10° NNE visible
25 Mar 6.6 03:07:38 14° W 03:10:21 18° WNW 03:14:19 10° NNW visible
26 Mar 4.2 01:18:08 30° S 01:21:05 70° E 01:26:56 10° NNE visible
26 Mar 6.7 03:01:20 10° WSW 03:05:07 18° WNW 03:08:57 10° NNW visible
27 Mar 4.2 01:10:04 10° S 01:15:48 74° E 01:21:41 10° NNE visible
27 Mar 6.8 02:56:15 10° WSW 02:59:54 17° WNW 03:03:35 10° NNW visible
28 Mar 4.2 01:04:46 10° S 01:10:32 77° E 01:16:26 10° NNE visible
28 Mar 6.9 02:51:10 10° W 02:54:40 16° WNW 02:58:13 10° NNW visible
29 Mar 4.2 00:59:28 10° S 01:05:15 81° E 01:11:10 10° NNE visible
29 Mar 7.0 02:46:07 10° W 02:49:26 15° WNW 02:52:49 10° NNW visible
30 Mar 4.2 00:54:12 10° S 00:59:59 85° E 01:05:55 10° N visible
30 Mar 7.0 02:41:03 10° W 02:44:13 15° WNW 02:47:25 10° NNW visible
30 Mar 7.8 09:56:04 10° NE 09:57:08 10° ENE 09:58:12 10° ENE visible
